This is the latest recevied weather packets stored in our database for station/object KD2ZLA. If no packets are shown the sender has not sent any weather packets the latest 10 day(s).
| Time | Temp. | Humidity | Pressure | Rain* | Wind** | Luminosity | Snow |
|---|---|---|---|---|---|---|---|
| 1777236532 | 18.89° C | 30% | 1020 hPa | 0 mm | - | 445 W/m² | - |
| 1777236229 | 18.89° C | 32% | 1020 hPa | 0 mm | - | 462 W/m² | - |
| 1777235924 | 18.33° C | 33% | 1019.9 hPa | 0 mm | - | 480 W/m² | - |
| 1777235621 | 18.89° C | 31% | 1020 hPa | 0 mm | - | 493 W/m² | - |
| 1777235318 | 18.89° C | 32% | 1020 hPa | 0 mm | - | 508 W/m² | - |
| 1777235015 | 17.78° C | 36% | 1019.7 hPa | 0 mm | - | 523 W/m² | - |
| 1777234711 | 17.78° C | 31% | 1019.7 hPa | 0 mm | - | 539 W/m² | - |
| 1777234407 | 17.78° C | 34% | 1019.8 hPa | 0 mm | - | 554 W/m² | - |
| 1777234102 | 17.78° C | 34% | 1019.7 hPa | 0 mm | - | 570 W/m² | - |
| 1777233799 | 18.33° C | 31% | 1019.8 hPa | 0 mm | - | 576 W/m² | - |
| 1777233495 | 18.89° C | 32% | 1019.8 hPa | 0 mm | - | 593 W/m² | - |
| 1777233195 | 18.89° C | 37% | 1019.8 hPa | 0 mm | - | 617 W/m² | - |
| 1777232895 | 18.33° C | 33% | 1020 hPa | 0 mm | - | 623 W/m² | - |
| 1777232593 | 17.78° C | 32% | 1020 hPa | 0 mm | - | 634 W/m² | - |
| 1777232292 | 18.33° C | 34% | 1020 hPa | 0 mm | - | 650 W/m² | - |
| 1777231987 | 19.44° C | 33% | 1019.8 hPa | 0 mm | - | 660 W/m² | - |
| 1777231685 | 18.33° C | 34% | 1020 hPa | 0 mm | - | 674 W/m² | - |
| 1777231381 | 17.78° C | 34% | 1020.1 hPa | 0 mm | - | 685 W/m² | - |
| 1777231076 | 18.33° C | 34% | 1020.1 hPa | 0 mm | - | 694 W/m² | - |
| 1777230774 | 18.33° C | 33% | 1020.2 hPa | 0 mm | - | 711 W/m² | - |
| 1777230474 | 17.78° C | 34% | 1020.3 hPa | 0 mm | - | 715 W/m² | - |
| 1777230171 | 18.89° C | 37% | 1020.1 hPa | 0 mm | - | 726 W/m² | - |
| 1777229868 | 18.33° C | 36% | 1020.3 hPa | 0 mm | - | 740 W/m² | - |
| 1777229564 | 17.78° C | 35% | 1020.5 hPa | 0 mm | - | 773 W/m² | - |
| 1777229261 | 18.33° C | 35% | 1020.1 hPa | 0 mm | - | 786 W/m² | - |
* Rain latest hour (hover to see other rain measurements)
** Current wind speed in m/s (hover to see current wind gust speed)